Regional Weather Roundup
Issued by NWS

Home | Current Version | Previous Version | Text Only | Print | Product List | Glossary On
Versions: 1 2 3 4 5 6 7 8 9 10 11 12 13 14 15 16 17 18 19 20 21 22 23 24 25 26 27 28 29 30 31 32 33 34 35 36 37 38 39 40 41 42 43 44 45 46 47 48 49 50
000
ASUS43 KMPX 270901
RWRMN
WEATHER ROUNDUP FOR MINNESOTA
NATIONAL WEATHER SERVICE TWIN CITIES/CHANHASSEN MN
400 AM CDT THU AUG 27 2015


NOTE: "FAIR" INDICATES FEW OR NO CLOUDS BELOW 12,000 FEET WITH NO
SIGNIFICANT WEATHER AND/OR OBSTRUCTIONS TO VISIBILITY. N/A MEANS
CURRENT SKY AND/OR WEATHER CONDITIONS ARE NOT AVAILABLE.

MNZ060>063-068>070-271000-
   Twin Cities Metro

CITY           SKY/WX    TMP DP  RH WIND       PRES   REMARKS
TWIN CITIES    MOCLDY    61  54  77 SE3       30.12R
ST PAUL        CLOUDY    60  56  86 SE6       30.13R
CRYSTAL        MOCLDY    62  54  74 S3        30.11R
BLAINE         MOCLDY    61  57  88 S3        30.12R
LAKEVILLE      PTCLDY    54  54 100 CALM      30.13R
EDEN PRAIRIE   MOCLDY    61  55  81 CALM      30.11R
SOUTH ST PAUL  PTCLDY    59  56  90 CALM      30.12R
LAKE ELMO      MOCLDY    54  52  94 CALM      30.14R
$$
MNZ001>005-007-008-013>017-022>024-027-028-271000-
   Northwest Minnesota

CITY           SKY/WX    TMP DP  RH WIND       PRES   REMARKS
BEMIDJI        CLEAR     46  45  95 S3        30.08R
HALLOCK        CLEAR     54  50  87 SE8       30.01R
ROSEAU         CLEAR     52  46  82 S6        30.03S
WARROAD        CLEAR     52  48  87 S5        30.04S
THIEF RVR FALL CLEAR    N/A N/A N/A SE5       30.04R
CROOKSTON      CLEAR     54  52  94 SE7       30.04R
FOSSTON        CLEAR     52  48  87 SE7       30.07R
DETROIT LAKES  MOCLDY    59  54  82 SE6       30.08S
MOORHEAD       MOCLDY    59  54  82 SE6       30.03F
PARK RAPIDS    CLOUDY    57  50  77 S6        30.09R
MAHNOMEN       FAIR      54  50  87 SE6       30.06R
$$
MNZ006-009>011-018-025>026-271000-
   North Central Minnesota

CITY           SKY/WX    TMP DP  RH WIND       PRES   REMARKS
BAUDETTE       CLEAR     49  46  90 SE5       30.04F
FLAG ISLAND    CLEAR     61  55  82 S3        30.02F HAZE
INTL FALLS     CLEAR     39  38  96 CALM      30.07F
WASKISH        CLEAR     48  48 100 CALM      30.06S
BIG FORK       CLEAR     41  39  93 CALM      30.09S FOG
LONGVILLE      CLEAR     45  45 100 CALM      30.10R
GRAND RAPIDS   CLEAR     45  43  93 S5        30.10R
CRANE LAKE     CLEAR     39  37  93 CALM      30.10F
ORR            CLEAR     48  46  93 CALM      30.07S
COOK           CLEAR     43  41  93 CALM      30.10S
WALKER         FAIR      49  48  97 CALM      30.09R
$$
MNZ012-019>021-037-271000-
   Northeast Minnesota

CITY           SKY/WX    TMP DP  RH WIND       PRES   REMARKS
DULUTH         CLEAR     48  44  86 E3        30.11S
ELY            CLEAR     39  39 100 CALM      30.10F
HIBBING        CLEAR     40  39  97 CALM      30.11R FOG
EVELETH        CLEAR     39  39 100 CALM      30.12S
DULUTH HARBOR  CLEAR     54  52  94 NE8       30.12R
TWO HARBORS    CLEAR     46  43  87 CALM      30.10S
SILVER BAY     CLEAR     41  39  93 CALM      30.10F
GRAND MARAIS     N/A     46  43  89 N3        30.12S
G MARAIS ARPRT CLEAR     37  36  93 CALM      30.14S
$$
MNZ029>031-032-039>041-046>048-054>057-064-271000-
   West Central Minnesota

CITY           SKY/WX    TMP DP  RH WIND       PRES   REMARKS
FERGUS FALLS   MOCLDY    63  54  72 SE7       30.04F
WHEATON        CLOUDY    57  55  94 SE7       30.04F
MORRIS         CLOUDY    63  57  82 SE7       30.04S
ALEXANDRIA     MOCLDY    59  55  87 SE5       30.08S
ELBOW LAKE     CLOUDY    62  55  78 SE8       30.05S
WADENA         MOCLDY    55  52  88 E3        30.09R
GLENWOOD       MOCLDY    57  55  94 E5        30.08F
APPLETON       CLOUDY    63  55  77 SE8       30.03F
BENSON         CLOUDY    61  54  77 S5        30.05F
ORTONVILLE     CLOUDY    61  55  82 SE3       30.04R
MADISON        CLOUDY    59  55  88 SE3       30.04S
WILLMAR        FAIR      61  55  82 SE7       30.08S
$$
MNZ033>034-036-042>043-049>051-058-059-271000-
   Central Minnesota

CITY           SKY/WX    TMP DP  RH WIND       PRES   REMARKS
ST CLOUD       MOCLDY    56  54  93 CALM      30.11R
SAUK CENTRE    FAIR      58  55  88 E6        30.08F
PAYNESVILLE    MOCLDY    62  54  76 E6        30.09F
AITKIN         CLEAR     45  39  81 CALM      30.10R HAZE
PINE RIVER     MOCLDY    46  46 100 CALM      30.14R
BRAINERD       CLOUDY    52  50  93 CALM      30.12R
STAPLES        CLOUDY    54  52  94 CALM      30.11R
LONG PRAIRIE   MOCLDY    55  54  94 E3        30.09S
LITTLE FALLS   MOCLDY    55  50  82 CALM      30.11R
LITCHFIELD     MOCLDY    61  57  88 SE5       30.09F
BUFFALO        CLOUDY    62  55  80 CALM      30.12R
MAPLE LAKE     CLOUDY    61  58  87 SE5       30.11R
$$
MNZ037-044-045-052-053-271000-
   East Central Minnesota

CITY           SKY/WX    TMP DP  RH WIND       PRES   REMARKS
PRINCETON      MOCLDY    57  55  94 CALM      30.12R
MORA           CLEAR     50  48  93 CALM      30.14R
CAMBRIDGE      MOCLDY    61  50  67 CALM      30.11R
MOOSE LAKE     CLEAR     45  45 100 CALM      30.09S
HINCKLEY       FAIR      46  46 100 CALM      30.12R
CLOQUET        CLEAR     45  43  93 CALM      30.12R
MCGREGOR       CLEAR     46  45  93 CALM      30.11R
$$
MNZ071>073-080-081-089-090-097-098-271000-
   Southwest Minnesota

CITY           SKY/WX    TMP DP  RH WIND       PRES   REMARKS
MONTEVIDEO     CLOUDY    59  55  88 S6        30.06S
GRANITE FALLS  CLOUDY    58  55  87 E3        30.07F
CANBY          CLOUDY    56  55  94 SE7       30.04F
MARSHALL       MOCLDY    57  52  82 SE3       30.05S
REDWOOD FALLS  MOCLDY    59  54  83 E6        30.07R
OLIVIA         MOCLDY    57  52  82 SE6       30.07S
PIPESTONE      CLOUDY    61  57  88 S5        30.05S
WINDOM         PTCLDY    57  54  88 CALM      30.06F
WORTHINGTON    MOCLDY    59  52  77 S8        30.06F
JACKSON        PTCLDY    59  54  82 S9        30.08F
TRACY          MOCLDY    61  56  82 S8        30.05S
SLAYTON        CLOUDY    57  57  97 CALM      30.06F
$$
MNZ065>067-074>077-082>085-091>093-271000-
   South Central Minnesota

CITY           SKY/WX    TMP DP  RH WIND       PRES   REMARKS
MANKATO        MOCLDY    59  52  77 SE8       30.10S
NEW ULM        PTCLDY    59  54  82 SE6       30.08S
FAIRMONT       PTCLDY    55  48  76 S7        30.08S
GLENCOE        MOCLDY    62  57  84 E3        30.09S
FARIBAULT      MOCLDY    57  55  94 CALM      30.14R
OWATONNA       MOCLDY    59  54  82 SE6       30.13R
WASECA         PTCLDY    55  54  94 E7        30.12R
ALBERT LEA     MOCLDY    55  55 100 CALM      30.14R
$$
MNZ078>079-086>088-094>096-271000-
   Southeast Minnesota

CITY           SKY/WX    TMP DP  RH WIND       PRES   REMARKS
ROCHESTER      PTCLDY    52  49  89 S5        30.15R
RED WING       PTCLDY    54  52  94 CALM      30.12R
STANTON        MOCLDY    55  53  90 SW5       30.13R
DODGE CENTER   PTCLDY    52  50  93 CALM      30.15R
WINONA         CLEAR     54  54 100 CALM      30.13R
AUSTIN         CLOUDY    55  54  94 CALM      30.15R
PRESTON        CLEAR     53  50  90 CALM      30.15R
$$
ABBREVIATIONS USED IN REMARKS
   TC - TEMPERATURES IN CELSIUS
  WCI - WIND CHILL INDEX
   HX - HEAT INDEX
  VSB - VISIBILITY
$$


USA.gov is the U.S. government's official web portal to all federal, state and local government web resources and services.